Overview Statistics Trail Chart Weather Telemetry Raw packets
 

This is the latest recevied weather packets stored in our database for station/object N3LF. If no packets are shown the sender has not sent any weather packets the latest 10 day(s).

<< 13 14 15 16 17 18 19 >>
Time Temp. Humidity Pressure Rain* Wind** Luminosity Snow
1788530080 30.56° C 80% 1019.3 hPa 0 mm - 264 W/m² -
1788529777 30.56° C 81% 1019.1 hPa 0 mm - 253 W/m² -
1788529476 30° C 82% 1019.3 hPa 0 mm - 239 W/m² -
1788529171 30° C 84% 1019.2 hPa 0 mm - 226 W/m² -
1788528866 28.89° C 86% 1019.3 hPa 0 mm - 212 W/m² -
1788528561 28.89° C 87% 1019.2 hPa 0 mm - 199 W/m² -
1788528257 28.33° C 89% 1019.1 hPa 0 mm - 194 W/m² -
1788527956 27.78° C 90% 1018.9 hPa 0 mm - 171 W/m² -
1788527651 27.78° C 92% 1019.1 hPa 0 mm - 146 W/m² -
1788527347 27.22° C 93% 1019.1 hPa 0 mm - 130 W/m² -
1788527046 27.22° C 94% 1019.1 hPa 0 mm - 118 W/m² -
1788526741 26.67° C 97% 1019.2 hPa 0 mm - 106 W/m² -
1788526437 25.56° C 99% 1019.2 hPa 0 mm - 96 W/m² -
1788526136 25° C 99% 1019.2 hPa 0 mm - 83 W/m² -
1788525833 25° C 99% 1019.1 hPa 0 mm - 78 W/m² -
1788525528 25° C 99% 1019 hPa 0 mm - 65 W/m² -
1788525223 25° C 99% 1018.8 hPa 0 mm - 53 W/m² -
1788524919 24.44° C 99% 1018.9 hPa 0 mm - 48 W/m² -
1788524618 23.89° C 99% 1018.8 hPa 0 mm - 45 W/m² -
1788524313 23.89° C 99% 1018.9 hPa 0 mm - 44 W/m² -
1788524010 23.89° C 99% 1018.8 hPa 0 mm - 41 W/m² -
1788523706 23.33° C 99% 1018.7 hPa 0 mm - 37 W/m² -
1788523401 23.33° C 99% 1018.7 hPa 0 mm - 32 W/m² -
1788523096 23.33° C 99% 1018.6 hPa 0 mm - 26 W/m² -
1788522792 23.33° C 99% 1018.4 hPa 0 mm - 21 W/m² -

* Rain latest hour (hover to see other rain measurements)
** Current wind speed in m/s (hover to see current wind gust speed)